Location: Nelson
(41.2830°S, 173.2830°E)
Time: 06:21:48
(UTC+12:00)

ISS - Pass Details

Date: 23 May 2025
Orbit: 415 x 417 km, 51.6° (Epoch: 16 June)

Event Time Altitude Azimuth Distance (km) Brightness Sun altitude
Exits shadow 05:06:21 12° 140° (SE) 1,429 -0.7 -27.7°
Drops below altitude 10° 05:06:37 10° 138° (SE) 1,529 -0.5 -27.6°
Sets 05:08:51 0° 129° (SE) 2,399 0.7 -27.2°
